Regional Weather Roundup
Issued by NWS

Home | Current Version | Previous Version | Graphics & Text | Print | Product List | Glossary On
Versions: 1 2 3 4 5 6 7 8 9 10 11 12 13 14 15 16 17 18 19 20 21 22 23 24 25 26 27 28 29 30 31 32 33 34 35 36 37 38 39 40 41 42 43 44 45 46 47 48 49 50
940
ASUS44 KLIX 280505
RWRLA
LOUISIANA WEATHER ROUNDUP
NATIONAL WEATHER SERVICE NEW ORLEANS LA
1100 PM CST FRI FEB 27 2015

NOTE: "FAIR" INDICATES FEW OR NO CLOUDS BELOW 12,000 FEET WITH NO
      SIGNIFICANT WEATHER AND/OR OBSTRUCTIONS TO VISIBILITY.
      SKY/WX - SKY CONDITION AND SIGNIFICANT WEATHER.
      TMP - AIR TEMPERATURE.    DP   - DEWPOINT TEMPERATURE.
      RH  - RELATIVE HUMIDITY.  PRES - PRESSURE.
      HX  - HEAT INDEX.         WCI  - WIND CHILL INDEX.

*  THESE STATIONS ARE NOT NWS OR FAA STATIONS AND ARE NOT UNDER
   NWS QUALITY CONTROL.

LAZ040-048-061>063-065-066-069-280600-
SOUTHEAST LOUISIANA

CITY           SKY/WX    TMP DP  RH WIND       PRES   REMARKS
N.O. AUDUBON     N/A     47  36  64 MISG        N/A
N.O. INTL ARPT PTCLDY    47  33  58 NE12      30.40S
N.O. LAKEFRONT CLEAR     49  34  56 NE18      30.40F
SLIDELL        CLEAR     37  32  82 N5        30.40S WCI  33
BATON ROUGE    CLEAR     38  30  73 N7        30.43S WCI  33
BOOTHVILLE     PTCLDY    51  41  68 NE12      30.37S
BELLE CHASSE   PTCLDY    46  31  55 N5        30.39S
BOGALUSA*        N/A     37  31  80 N5        30.43F WCI  33
GALLIANO*      PTCLDY    43  37  78 NW5       30.40S
NEW ROADS*     FAIR      35  28  74 N9        30.46S WCI  28
GONZALES*      FAIR      40  33  76 N5        30.42S
HAMMOND*       CLEAR     37  32  81 N6        30.43S WCI  33
HOUMA*         CLEAR     40  34  80 N6        30.40S
PORT FOURCHON* PTCLDY    48  37  66 N9        30.42S

$$

LAZ041-044-053-054-280600-
SOUTHWEST LOUISIANA

CITY           SKY/WX    TMP DP  RH WIND       PRES   REMARKS
LAKE CHARLES   CLEAR     38  29  70 NE15      30.42F WCI  29
LAFAYETTE      FAIR      36  29  75 N12       30.44S WCI  28
PATTERSON      CLEAR     43  34  70 NE6       30.42S
SALT POINT       N/A     43  35  73 CALM      30.40R
NEW IBERIA     CLEAR     38  30  73 N12       30.43F WCI  30
CHENAULT AIRPK CLEAR     37  29  73 NE7       30.44S WCI  32

$$

LAZ027-028-280600-
CENTRAL LOUISIANA

CITY           SKY/WX    TMP DP  RH WIND       PRES   REMARKS
FORT POLK      MOCLDY    33  25  70 E8        30.43F WCI  27
ALEXANDRIA INT CLOUDY    34  25  69 E7        30.46F WCI  28
ALEXANDRIA     MOCLDY    36  25  64 NE5       30.47F WCI  32

$$

LAZ001-002-280600-
NORTHWEST LOUISIANA

CITY           SKY/WX    TMP DP  RH WIND       PRES   REMARKS
SHREVEPORT     CLOUDY    34  22  61 E10       30.46F WCI  26
BARKSDALE AFB  CLOUDY    33  21  62 NE5       30.47F WCI  28
DTN SHREVEPORT CLOUDY    32  19  58 NE8       30.48F WCI  25

$$

LAZ014-016-280600-
NORTHEAST LOUISIANA

CITY           SKY/WX    TMP DP  RH WIND       PRES   REMARKS
MONROE         CLOUDY    32  25  75 NE7       30.52S WCI  26
TALLULAH       CLOUDY    34  25  69 NE8       30.48F WCI  27

$$




USA.gov is the U.S. government's official web portal to all federal, state and local government web resources and services.